Probability
0 0 0 0 0 0 0 0 0 0 0 0 0 0 0 0 0 0 0 0 0 0 0 0 0 0 0 0 0 0 0 0 0 0 0 0 0 0 0 0 0 0 0
0 0 0 0 0 0 0 0 0 0 0 0 0 0 0 0 0 0 0 0 0 0 0 0 0 0 0 0 0 0 0 0 0 0 0 0 0 0 0 0 0 0 0
0 0 0 0 0 0 0 0 0 0 0 0 0 0 0 0 0 0 0 0 0 0 0 0 0 0 0 0 0 0 0 0 0 0 0 0 0 0 0 0 0 0 0
0 0 0 0 0 0 0 0 0 0 0 0 0 0 0 0 0 0 0 0 0 0 0 0 0 0 0 0 0 0 0 0 0 0 0 0 0 0 0 0 0 0 0
0 0 0 0 0 0 0 0 0 0 0 0 0 0 0 0 0 0 0 0 0 0 0 0 0 0 0 0 0 0 0 0 0 0 0 0 0 0 0 0 0 0 0
0 0 0 0 0 0 0 0 0 0 0 0 0 0 0 0 0 0 0 0 0 0 0 0 0 0 0 0 0 0 0 0 0 0 0 0 0 0 0 0 0 0 0
0 0 0 0 0 0 0 0 0 0 0 0 0 0 0 0 0 0 0 0 0 0 0 0 0 0 0 0 0 0 0 0 0 0 0 0 0 0 0 0 0 0 0
0 0 0 0 0 0 0 0 0 0 0 0 0 0 0 0 0 0 0 0 0 0 0 0 0 0 0 0 0 0 0 0 0 0 0 0 0 0 0 0 0 0 0
0 0 0 0 0 0 0 0 0 0 0 0 0 0 0 0 0 0 0 0 0 0 0 0 0 0 0 0 0 0 0 0 0 0 0 0 0 0 0 0 0 0 0
0 0 0 0 0 0 0 0 0 0 0 0 0 0 0 0 0 0 0 0 0 0 0 0 0 0 0 0 0 0 0 0 0 0 0 0 0 0 0 0 0 0 0
0 0 0 0 0 0 0 0 0 0 0 0 0 0 0 0 0 0 0 0 0 0 0 0 0 0 0 0 0 0 0 0 0 0 0 0 0 0 0 0 0 0 0
0 0 0 0 0 0 0 0 0 0 0 0 0 0 0 0 0 0 0 0 0 0 0 0 0 0 0 0 0 0 0 0 0 0 0 0 0 0 0 0 0 0 0
0 0 0 0 0 0 0 0 0 0 0 0 0 0 0 0 0 0 0 0 0 0 0 0 0 0 0 0 0 0 0 0 0 0 0 0 0 0 0 0 0 0 0
0 0 0 0 0 0 0 0 0 0 0 0 0 0 0 0 0 0 0 0 0 0 0 0 0 0 0 0 0 0 0 0 0 0 0 0 0 0 0 0 0 0 0
0 0 0 0 0 0 0 0 0 0 0 0 0 0 0 0 0 0 0 0 0 0 0 0 0 0 0 0 0 0 0 0 0 0 0 0 0 0 0 0 0 0 0
0 0 0 0 0 0 0 0 0 0 0 0 0 0 0 0 0 0 0 0 0 0 0 0 0 0 0 0 0 0 0 0 0 0 0 0 0 0 0 0 0 0 0
0 0 0 0 0 0 0 0 0 0 0 0 0 0 0 0 0 0 0 0 0 0 0 0 0 0 0 0 0 0 0 0 0 0 0 0 0 0 0 0 0 0 0
0 0 0 0 0 0 0 0 0 0 0 0 0 0 0 0 0 0 0 0 0 0 0 0 0 0 0 0 0 0 0 0 0 0 0 0 0 0 0 0 0 0 0
0 0 0 0 0 0 0 0 0 0 0 0 0 0 0 0 0 0 0 0 0 0 0 0 0 0 0 0 0 0 0 0 0 0 0 0 0 0 0 0 0 0 0
0 0 0 0 0 0 0 0 0 0 0 0 0 0 0 0 0 0 0 0 0 0 0 0 0 0 0 0 0 0 0 0 0 0 0 0 0 0 0 0 0 0 0
0 0 0 0 0 0 0 0 0 0 0 0 0 0 0 0 0 0 0 0 0 0 0 0 0 0 0 0 0 0 0 0 0 0 0 0 0 0 0 0 0 0 0
0 0 0 0 0 0 0 0 0 0 0 0 0 0 0 0 0 0 0 0 0 0 0 0 0 0 0 0 0 0 0 0 0 0 0 0 0 0 0 0 0 0 0
0 0 0 0 0 0 0 0 0 0 0 0 0 0 0 0 0 0 0 0 0 0 0 0 0 0 0 0 0 0 0 0 0 0 0 0 0 0 0 0 0 0 0
0 0 0 0 0 0 0 0 0 0 0 0 0 0 0 0 0 0 0 0 0 0 0 0 0 0 0 0 0 0 0 0 0 0 0 0 0 0 0 0 0 0 0
0 0 0 0 0 0 0 0 0 0 0 0 0 0 0 0 0 0 0 0 0 0 0 0 0 0 0 0 0 0 0 0 0 0 0 0 0 0 0 0 0 0 0
0 0 0 0 0 0 0 0 0 0 0 0 0 0 0 0 0 0 0 0 0 0 0 0 0 0 0 0 0 0 0 0 0 0 0 0 0 0 0 0 0 0 0
Height
5787 5788 5788 5789 5789 5790 5791 5790 5789 5788 5787 5786 5785 5784 5782 5781 5780 5779 5778 5777 5775 5774 5772 5771 5770 5769 5768 5768 5767 5767 5768 5768 5769 5769 5771 5772 5773 5774 5775 5776 5777 5777 5777
5776 5777 5778 5779 5780 5780 5780 5780 5780 5779 5778 5777 5776 5776 5774 5774 5773 5772 5771 5770 5769 5767 5766 5765 5763 5762 5761 5760 5760 5759 5760 5760 5762 5762 5763 5765 5766 5767 5768 5769 5770 5771 5771
5766 5767 5768 5769 5770 5771 5771 5771 5770 5770 5769 5769 5768 5767 5767 5766 5765 5765 5764 5763 5762 5761 5760 5759 5758 5756 5755 5755 5754 5754 5754 5754 5755 5756 5757 5758 5760 5761 5761 5762 5763 5764 5764
5757 5758 5759 5761 5761 5762 5762 5762 5762 5761 5761 5760 5760 5759 5759 5758 5757 5757 5756 5755 5755 5754 5753 5752 5751 5750 5749 5749 5749 5748 5748 5749 5749 5750 5751 5751 5753 5754 5755 5756 5756 5757 5758
5748 5750 5751 5752 5753 5753 5753 5753 5753 5753 5753 5752 5752 5751 5750 5750 5749 5748 5747 5746 5746 5745 5744 5744 5743 5743 5742 5742 5742 5742 5742 5742 5743 5744 5744 5745 5746 5747 5748 5749 5750 5750 5751
5740 5741 5743 5744 5744 5744 5745 5745 5745 5745 5744 5744 5743 5742 5742 5741 5740 5739 5738 5737 5736 5735 5734 5734 5733 5733 5733 5733 5733 5733 5734 5734 5735 5736 5737 5737 5738 5739 5741 5741 5742 5743 5744
5731 5733 5734 5735 5736 5736 5736 5737 5737 5737 5736 5735 5734 5733 5732 5731 5730 5729 5728 5727 5726 5724 5723 5723 5722 5722 5722 5722 5722 5723 5724 5725 5726 5727 5728 5729 5730 5731 5732 5734 5735 5736 5737
5723 5725 5726 5726 5727 5727 5728 5729 5729 5728 5728 5727 5726 5725 5723 5722 5721 5720 5718 5717 5715 5714 5712 5711 5711 5710 5710 5710 5711 5711 5712 5713 5715 5716 5717 5718 5720 5722 5724 5726 5727 5727 5728
5716 5717 5718 5719 5719 5720 5721 5721 5721 5721 5720 5719 5718 5716 5715 5713 5712 5710 5709 5707 5705 5704 5702 5701 5700 5699 5699 5699 5699 5699 5700 5701 5702 5704 5705 5707 5709 5711 5713 5716 5717 5718 5719
5710 5711 5712 5712 5713 5714 5714 5715 5714 5714 5713 5711 5710 5708 5706 5704 5703 5701 5700 5698 5696 5695 5693 5691 5690 5689 5688 5687 5688 5688 5688 5689 5690 5691 5693 5695 5697 5699 5702 5704 5707 5708 5710
5705 5706 5707 5707 5708 5708 5709 5709 5708 5707 5706 5704 5703 5701 5699 5697 5695 5693 5692 5690 5688 5687 5685 5683 5681 5680 5679 5678 5677 5677 5677 5677 5678 5679 5680 5682 5684 5687 5690 5692 5694 5697 5698
5702 5702 5703 5703 5703 5703 5703 5703 5702 5701 5700 5698 5697 5695 5692 5691 5689 5687 5685 5683 5681 5679 5677 5675 5674 5672 5671 5669 5668 5667 5667 5667 5667 5667 5669 5670 5672 5674 5677 5679 5681 5684 5686
5698 5699 5699 5699 5699 5699 5698 5698 5697 5696 5695 5693 5691 5689 5687 5685 5682 5680 5678 5675 5673 5671 5669 5667 5665 5664 5662 5661 5659 5658 5658 5657 5657 5657 5658 5659 5660 5662 5664 5666 5668 5671 5673
5695 5695 5695 5695 5695 5694 5694 5693 5692 5691 5690 5688 5686 5684 5682 5679 5676 5673 5670 5667 5664 5662 5660 5658 5656 5654 5652 5651 5650 5649 5648 5648 5648 5648 5648 5649 5649 5650 5652 5653 5656 5658 5661
5692 5692 5692 5691 5691 5690 5690 5689 5688 5687 5685 5683 5681 5679 5676 5673 5670 5666 5663 5659 5656 5653 5651 5648 5646 5644 5642 5640 5639 5638 5637 5637 5637 5638 5638 5639 5640 5640 5641 5642 5643 5645 5648
5690 5689 5688 5688 5687 5687 5686 5685 5684 5682 5680 5678 5676 5673 5670 5667 5663 5659 5656 5652 5649 5646 5643 5640 5637 5634 5632 5630 5628 5627 5626 5626 5626 5626 5627 5628 5629 5630 5630 5632 5633 5634 5636
5686 5685 5685 5684 5683 5682 5681 5680 5679 5678 5675 5673 5670 5667 5664 5661 5657 5654 5650 5646 5643 5639 5636 5632 5629 5626 5623 5620 5618 5616 5615 5614 5614 5614 5614 5615 5616 5618 5619 5621 5623 5624 5626
5682 5681 5680 5680 5679 5678 5677 5676 5674 5672 5670 5668 5665 5662 5659 5656 5653 5649 5645 5642 5638 5634 5630 5626 5622 5618 5615 5611 5608 5606 5604 5602 5602 5601 5601 5602 5603 5605 5607 5609 5611 5614 5616
5677 5677 5676 5675 5674 5673 5671 5670 5669 5668 5666 5663 5661 5658 5655 5652 5648 5645 5641 5637 5633 5629 5624 5620 5616 5612 5608 5604 5600 5597 5594 5592 5590 5589 5588 5589 5590 5591 5593 5596 5598 5601 5604
5672 5671 5670 5669 5668 5667 5666 5665 5664 5663 5661 5659 5656 5653 5650 5647 5644 5640 5636 5632 5627 5623 5618 5614 5610 5605 5601 5596 5592 5589 5585 5582 5579 5577 5576 5575 5576 5577 5579 5582 5585 5587 5591
5665 5665 5664 5663 5663 5662 5661 5660 5659 5658 5656 5654 5651 5648 5645 5642 5638 5635 5631 5626 5622 5617 5612 5607 5603 5598 5594 5589 5585 5581 5577 5574 5570 5567 5565 5563 5563 5564 5565 5567 5570 5574 5577
5658 5658 5657 5657 5656 5656 5655 5654 5652 5651 5650 5648 5646 5643 5640 5636 5633 5629 5625 5621 5616 5611 5606 5601 5596 5591 5587 5582 5577 5573 5569 5566 5562 5558 5555 5553 5552 5552 5552 5554 5556 5559 5563
5650 5650 5650 5650 5649 5649 5648 5647 5646 5645 5643 5641 5639 5636 5633 5630 5627 5623 5619 5614 5610 5605 5599 5594 5589 5584 5579 5575 5570 5566 5562 5558 5554 5550 5546 5543 5541 5540 5540 5541 5542 5545 5548
5641 5642 5642 5642 5641 5641 5641 5640 5639 5638 5636 5634 5632 5630 5627 5624 5620 5617 5612 5608 5603 5598 5593 5587 5582 5577 5572 5567 5563 5558 5554 5550 5546 5542 5538 5535 5533 5531 5530 5530 5530 5532 5534
5632 5633 5634 5634 5634 5634 5633 5633 5632 5631 5629 5627 5625 5623 5620 5617 5613 5610 5605 5601 5596 5591 5586 5580 5574 5569 5564 5559 5555 5550 5546 5542 5538 5534 5530 5527 5525 5522 5521 5520 5520 5520 5522
5623 5624 5625 5626 5626 5627 5626 5626 5625 5624 5622 5620 5618 5616 5613 5610 5606 5602 5598 5594 5589 5583 5578 5572 5567 5561 5556 5551 5547 5542 5538 5534 5529 5526 5522 5519 5516 5514 5512 5511 5510 5509 5510
Wind_Speed
44 44 44 43 43 43 43 42 41 39 38 36 34 33 31 30 28 27 27 26 26 25 25 26 27 28 30 31 32 33 32 29 27 26 24 22 22 22 22 22 22 22 21
38 38 38 39 39 39 38 37 36 36 35 34 33 32 31 30 29 27 26 26 25 24 23 23 23 23 24 26 26 26 26 25 24 23 22 21 21 20 21 21 21 21 20
34 34 34 34 35 35 34 34 34 34 34 34 33 32 32 31 30 29 28 27 26 25 24 23 23 22 21 22 23 23 23 22 21 20 21 20 20 20 20 20 20 20 20
31 31 31 32 32 32 31 32 33 33 33 33 33 32 32 32 32 31 31 30 29 28 27 26 25 24 23 22 22 22 22 21 21 21 22 21 21 21 21 20 20 20 21
30 30 31 31 31 30 30 31 31 31 31 31 32 32 32 32 32 32 32 32 33 32 31 30 30 29 28 27 26 25 25 24 24 24 24 24 23 23 23 23 22 22 21
30 30 30 30 29 29 29 29 30 30 30 31 32 32 33 33 33 33 33 33 34 34 34 34 34 33 33 32 31 30 29 28 27 27 27 26 25 25 25 24 24 24 24
28 28 28 28 28 28 29 29 29 29 30 30 31 31 31 31 32 32 33 33 34 34 34 34 34 34 35 35 35 34 34 33 32 31 30 29 28 27 27 26 26 26 27
24 25 26 26 26 27 27 27 27 27 27 28 28 29 30 30 31 31 31 32 32 33 33 34 34 35 35 36 36 36 36 36 35 34 33 32 31 31 30 29 28 29 29
21 22 22 22 21 21 21 22 22 24 25 25 26 27 28 28 29 29 30 30 30 30 31 32 33 33 34 34 35 36 37 37 36 36 36 35 34 34 34 34 33 32 32
19 19 19 18 18 18 19 19 21 22 22 23 24 24 25 26 27 27 27 26 27 28 28 29 30 31 31 32 33 35 36 37 37 37 37 37 37 37 37 38 38 38 38
15 15 15 15 15 16 16 17 18 19 20 20 21 22 22 23 23 24 24 25 25 26 26 27 28 28 29 30 30 31 32 34 36 37 37 38 39 39 40 41 42 42 42
12 12 12 12 13 14 14 15 16 16 17 18 19 20 20 21 23 24 25 25 26 27 27 27 28 28 28 28 29 29 30 31 32 33 35 36 38 40 41 41 42 43 44
10 10 10 11 11 11 12 13 13 14 15 16 18 20 21 22 24 25 27 28 29 29 29 29 29 29 30 29 29 29 29 29 29 29 31 32 35 37 39 40 42 43 43
8 8 8 8 8 9 10 11 12 13 15 17 18 20 22 23 25 26 28 29 29 30 30 30 30 30 30 31 32 32 31 30 30 29 29 29 31 33 35 38 40 42 42
6 7 7 7 8 9 10 11 12 14 15 17 18 20 22 24 25 26 26 27 27 28 29 29 29 30 30 31 32 32 33 33 33 33 32 31 30 30 31 33 35 38 41
7 8 8 9 9 10 11 12 14 15 16 18 19 21 22 23 23 24 24 25 25 25 26 27 27 28 29 30 32 33 34 34 35 35 35 35 34 32 31 31 31 32 33
10 10 11 11 12 12 13 13 14 15 17 18 20 21 21 22 22 23 23 23 23 24 25 26 26 27 28 29 30 31 32 34 35 36 36 37 37 36 35 33 32 31 30
14 14 14 14 14 14 14 14 15 15 16 18 19 20 21 21 22 22 22 23 24 25 25 26 26 26 27 28 29 30 31 33 35 36 38 38 39 39 38 38 36 34 32
17 17 17 16 16 16 16 15 15 15 16 17 18 19 20 20 21 21 22 24 24 25 26 26 27 26 26 27 27 28 29 30 32 35 38 40 41 41 41 41 40 39 37
20 19 19 18 18 17 17 16 15 15 16 17 18 19 20 21 22 23 24 26 26 27 28 28 28 27 26 26 26 26 27 28 29 31 34 37 40 42 43 44 43 42 41
22 21 21 20 19 19 18 18 17 17 17 18 19 20 21 22 24 25 26 27 28 29 29 29 29 29 28 28 27 27 26 26 27 28 30 33 36 39 42 44 45 45 45
23 23 22 22 21 20 20 20 20 19 19 19 20 21 22 24 25 26 28 29 30 31 32 32 32 31 30 29 29 28 28 27 27 28 28 29 32 34 37 40 43 45 47
25 24 24 23 23 22 21 21 21 21 21 21 22 23 24 25 27 28 30 31 32 33 33 33 34 33 32 30 30 30 29 28 27 27 27 27 27 29 32 36 39 41 44
26 25 25 24 24 23 22 22 22 22 22 23 24 25 26 27 28 29 31 33 34 35 35 35 35 34 33 31 30 30 29 29 28 27 26 26 26 26 28 31 34 37 40
27 26 25 25 24 24 24 23 23 23 23 24 25 26 27 28 29 30 32 34 36 38 38 38 37 35 33 32 32 31 30 29 28 27 26 25 25 25 26 27 30 33 36
27 26 26 25 24 24 24 24 24 24 24 25 25 26 27 28 29 31 33 35 38 38 39 38 37 35 34 33 33 32 31 30 29 27 26 25 25 24 25 26 27 30 32
Wind_Direction
268 269 270 270 272 274 276 279 280 282 283 285 287 288 287 287 286 285 286 287 288 290 289 286 281 276 271 265 260 259 257 256 253 252 251 250 250 253 255 258 261 262 264
267 268 268 269 271 273 275 277 278 280 281 283 285 285 284 284 283 283 285 285 286 288 288 287 286 282 276 271 266 262 257 254 252 251 250 249 250 254 256 257 258 260 262
265 266 267 268 270 272 274 276 277 278 279 281 282 282 282 282 281 280 280 281 282 283 284 285 283 282 280 276 269 265 261 255 252 253 254 253 254 256 257 256 256 258 261
264 266 267 269 270 271 273 275 276 277 278 279 280 280 281 281 280 279 278 278 279 279 279 279 278 277 276 274 271 268 265 263 261 260 259 259 258 258 259 257 257 258 259
264 265 267 268 270 271 272 273 274 275 277 278 279 279 280 281 281 280 279 278 278 277 277 276 275 273 273 272 271 269 267 265 264 263 261 260 260 258 257 257 257 257 257
261 263 265 266 267 268 270 271 273 274 276 278 279 280 281 281 282 281 280 279 278 277 276 275 273 272 270 269 269 267 266 264 263 262 261 259 258 257 257 256 255 255 255
258 259 261 263 265 268 269 271 272 275 277 278 280 281 281 282 282 281 280 279 279 277 276 274 272 271 269 268 267 266 265 264 262 261 259 257 255 254 253 252 251 252 252
256 258 260 262 264 267 269 271 274 276 279 281 282 284 284 285 284 283 282 281 279 278 276 274 272 270 267 266 264 263 262 261 259 257 255 253 251 250 248 247 248 248 246
256 257 259 262 266 269 271 275 278 281 283 285 286 287 288 288 288 286 285 284 282 280 278 276 275 272 269 266 264 262 260 258 256 254 251 249 247 245 243 242 241 242 244
254 256 260 264 268 272 276 280 282 285 287 290 291 292 292 291 291 290 289 287 285 283 282 280 278 276 273 271 268 265 262 259 256 253 250 248 245 243 241 240 239 240 242
255 257 260 265 271 275 280 285 288 291 293 295 296 297 297 297 296 295 295 294 291 289 288 285 283 281 279 277 273 270 267 263 259 256 252 250 248 245 242 241 240 240 241
257 258 262 268 273 279 283 287 291 294 298 299 300 301 301 302 301 300 299 298 295 292 290 288 286 283 282 280 278 275 272 269 265 261 257 254 251 248 246 244 244 244 243
259 262 265 269 274 279 284 289 293 297 299 301 302 303 303 303 302 301 299 298 295 293 289 286 284 282 281 279 277 276 274 271 268 265 262 258 255 253 250 248 247 246 246
261 260 263 267 272 277 283 290 296 299 302 303 304 305 305 305 304 303 301 299 296 293 290 288 285 283 281 278 275 273 272 270 268 267 266 264 261 259 256 252 250 248 247
263 263 267 272 278 284 291 296 300 303 306 308 309 309 310 310 310 309 308 305 302 298 295 292 290 285 282 279 276 272 269 267 265 264 264 262 262 260 258 257 254 252 250
271 272 276 280 286 291 295 299 303 306 309 311 313 315 316 318 318 317 316 313 310 308 305 301 297 293 288 283 280 276 273 270 267 264 262 260 259 258 258 257 255 253 252
278 280 281 284 287 291 295 300 304 307 310 313 316 320 323 324 325 324 324 323 321 317 313 309 306 302 297 292 287 281 276 271 268 264 261 258 256 255 253 253 252 252 252
281 283 284 286 287 290 294 299 304 307 311 314 318 321 325 327 328 329 327 326 325 323 320 316 313 310 306 300 294 288 282 276 270 265 261 258 256 253 251 249 248 247 247
280 282 284 285 287 289 293 298 302 305 307 310 315 320 325 329 331 330 328 327 326 325 323 321 318 315 312 308 302 296 290 283 277 271 266 261 257 253 250 247 246 244 244
277 279 281 283 285 288 291 293 295 299 301 305 310 317 322 326 329 330 329 327 326 325 325 323 320 318 316 312 309 305 300 293 286 278 270 265 260 255 251 248 246 244 242
274 276 278 280 281 284 286 289 291 294 298 302 308 313 318 321 323 327 328 327 326 325 324 324 323 322 319 315 313 311 307 302 296 289 279 271 264 259 254 251 247 245 242
271 272 274 276 278 280 283 287 290 294 298 302 307 311 315 317 319 322 324 326 327 327 326 325 323 322 321 317 314 312 311 307 303 297 290 282 272 264 258 253 249 246 244
269 270 271 274 276 278 281 285 289 293 297 301 305 309 313 315 318 321 323 325 327 327 327 326 324 322 320 316 314 312 311 309 306 302 296 290 282 272 263 257 253 249 246
265 266 268 271 274 277 279 282 286 291 295 298 302 306 310 314 316 319 322 325 326 327 326 325 323 322 319 315 313 312 311 309 307 304 300 296 289 281 271 262 257 253 249
263 264 265 266 269 273 277 281 284 288 292 296 300 304 307 311 314 316 320 323 324 324 324 323 321 320 317 314 313 313 312 311 309 306 303 298 293 286 278 270 262 256 252
261 263 264 265 267 269 272 276 280 284 288 292 297 301 305 308 311 314 316 319 320 321 321 321 321 318 315 314 313 314 314 312 309 306 302 299 295 289 282 275 268 262 256